Location: Carnières
(50.1682°N, 3.3474°E)
Time: 05:24:49
(UTC+00:00)

MOZ.5/SAFIR/RUBIN 5/SL-8 - Pass Details

Date: 12 August 2024
Orbit: 671 x 698 km, 98.3° (Epoch: 08 September)

Event Time Altitude Azimuth Distance (km) Brightness Sun altitude
Exits shadow 01:40:31 49° 224° (SW) 899 3.9 -20.7°
Maximum altitude 01:41:16 55° 259° (W) 840 3.9 -20.7°
Drops below altitude 10° 01:45:56 10° 338° (NNW) 2,168 6.8 -20.3°
Sets 01:48:15 0° 343° (NNW) 3,093 7.8 -20.1°
